Regional Weather Roundup
Issued by NWS Boston, MA

Home | Current Version | Previous Version | Text Only | Print | Product List | Glossary On
Versions: 1 2 3 4 5 6 7 8 9 10 11 12 13 14 15 16 17 18 19 20 21 22 23 24 25 26 27 28 29 30 31 32 33 34 35 36 37 38 39 40 41 42 43 44 45 46 47 48 49 50
281
ASUS41 KBOX 210510
RWRBOX

REGIONAL WEATHER ROUNDUP
NATIONAL WEATHER SERVICE TAUNTON MA
1200 AM EST SAT JAN 21 2017

NOTE:  "FAIR" INDICATES FEW OR NO CLOUDS BELOW 12,000 FEET WITH NO
SIGNIFICANT WEATHER AND/OR OBSTRUCTIONS TO VISIBILITY.

MAZALL-210600-
EASTERN MASSACHUSETTS

CITY           SKY/WX    TMP DP  RH WIND       PRES   REMARKS
BOSTON         CLOUDY    38  33  82 S8        29.92F
BEVERLY        CLOUDY    39  32  76 S3        29.91F
LAWRENCE       CLOUDY    35  32  88 CALM      29.93F
BEDFORD        CLOUDY    37  29  72 S6        29.91F
BLUE HILL        N/A     35  30  82 SW10      29.89F WCI  27
NORWOOD        CLOUDY    39  33  79 S7        29.93F
MARSHFIELD     CLOUDY    37  34  87 CALM      29.93F
PLYMOUTH       CLOUDY    37  31  78 S3        29.93F
TAUNTON        CLOUDY    38  32  79 CALM      29.92F
NEW BEDFORD    CLOUDY    39  33  79 SW3       29.92F
$$

MAZALL-210600-
CAPE COD AND THE ISLANDS

CITY           SKY/WX    TMP DP  RH WIND       PRES   REMARKS
FALMOUTH       CLOUDY    37  34  87 MISG      29.94F
HYANNIS        CLOUDY    40  33  76 SW5       29.92F
CHATHAM        CLOUDY    39  33  79 CALM      29.94F
PROVINCETOWN   CLOUDY    38  33  82 S3        29.94F
NANTUCKET      CLOUDY    41  33  73 S5        29.94F
MARTHAS VNYRD  CLOUDY    41  35  79 S6        29.93F
$$

MAZALL-210600-
CENTRAL AND WESTERN MASSACHUSETTS

CITY           SKY/WX    TMP DP  RH WIND       PRES   REMARKS
WORCESTER      CLOUDY    32  30  92 SW6       29.88S FOG     WCI  26
FITCHBURG      CLOUDY    36  31  82 CALM      29.91F
ORANGE         CLOUDY    33  32  96 CALM      29.90S
SPRINGFIELD    CLOUDY    36  36 100 SE3       29.90S
WESTFIELD      CLOUDY    36  35  96 S3        29.90F
NORTH ADAMS    CLOUDY    36  32  85 E5        29.87F
PITTSFIELD     CLOUDY    34  32  92 CALM      29.84F FOG
$$

RIZALL-210600-
RHODE ISLAND

CITY           SKY/WX    TMP DP  RH WIND       PRES   REMARKS
PROVIDENCE     CLOUDY    39  32  76 CALM      29.93F
NEWPORT        CLOUDY    40  37  89 SE6       29.92F
SMITHFIELD     CLOUDY    37  33  85 CALM      29.91F
WESTERLY       CLOUDY    42  36  79 SE3       29.93F
$$

CTZALL-210600-
CONNECTICUT

CITY           SKY/WX    TMP DP  RH WIND       PRES   REMARKS
BRADLEY INTL   DRIZZLE   37  36  96 S3        29.91F FOG
HARTFORD       CLOUDY    38  37  97 CALM      29.92F FOG
BRIDGEPORT     LGT RAIN  41  37  86 NE3       29.91F
DANBURY        LGT RAIN  37  35  92 CALM      29.91F FOG
GROTON         CLOUDY    41  38  89 SE3       29.92F
NEW HAVEN      LGT RAIN  39  37  92 CALM      29.91F
CHESTER        CLOUDY    37  37 100 CALM      29.90F FOG
MERIDEN        LGT RAIN  39  35  86 CALM      29.91F
WILLIMANTIC    CLOUDY    38  36  92 CALM      29.92F FOG
OXFORD         CLOUDY    36  34  93 CALM      29.90F
$$

MEZ002-015-021-024-NHZ003-005-008-011-012-014-VTZ005-008-210600-
NORTHERN NEW ENGLAND

CITY           SKY/WX    TMP DP  RH WIND       PRES   REMARKS
PORTLAND ME    CLOUDY    36  29  75 SW3       29.91F
BANGOR ME      CLOUDY    32  29  88 SE3       29.90F
CONCORD NH     CLOUDY    32  30  92 CALM      29.90F
MANCHESTER NH  NOT AVBL
NASHUA NH      NOT AVBL
PORTSMOUTH NH  CLOUDY    35  31  87 CALM      29.90F
JAFFREY NH     NOT AVBL
KEENE NH       NOT AVBL
BURLINGTON VT  CLOUDY    38  31  76 S9        29.84F WCI  31
MT. WASHINGTON MOCLDY    36  21  55 W18         N/A  WCI  25
$$

NYZ052-076-210600-
EASTERN NEW YORK

CITY           SKY/WX    TMP DP  RH WIND       PRES   REMARKS
ALBANY         CLOUDY    39  33  79 S10       29.87F
NEW YORK CITY  CLOUDY    42  40  92 CALM      29.92S FOG
$$

ANZALL-210600-
MARINE OBSERVATIONS

STATION/POSITION TIME  TEMP    WIND        PRES    VSBY  WAVE
                       AIR SEA DIR/SP/G                  HT/PER
                 (UTC) (F)     (DEG/KT/KT) (MB)    (MI)  (FT/S)
BOSTON BUOY      0450   40 44  180/ 10/ 12 1012.4F         3/11
BUZZARDS BAY     0400   41     140/  8/  8 1014.4F
NANTUCKET SOUND  0350   42 43  160/  6/  8 1014.1          1/11
MASS BAY-STELLWA 0404   42 44  200/  8/ 10 1013.2F  1 7/8  3/10
ISLE OF SHOALS   0400   40     210/ 11/ 12 1013.1F
S OF BLOCK IS    0425      47                N/A           3/11
$$

......................KEY.........................
  SKY/WX - SKY CONDITION/PRESENT WEATHER
  TMP    - TEMPERATURE IN FAHRENHEIT
  DWPT   - DEWPOINT IN FAHRENHEIT
  RH     - RELATIVE HUMIDITY IN PERCENT
  WIND   - DIRECTION AND SPEED IN MPH
  PRES   - MEAN SEA LEVEL PRESSURE IN INCHES OF HG
  WCI    - WIND CHILL INDEX
  VSB    - VISIBILITY IN MILES
  HX     - HEAT INDEX
  TC     - TEMPERATURE IN CELSIUS
  VRB    - VARIABLE WIND DIRECTION
  N/A    - NOT AVAILABLE




USA.gov is the U.S. government's official web portal to all federal, state and local government web resources and services.